Tracking 31027 objects as of 19-Jul-2025
HD Live streaming from Space Station
objects crossing your sky now

STARLINK-3963

Track STARLINK-3963 now!
10-day predictions
STARLINK-3963 is classified as:


NORAD ID: 52643
Int'l Code: 2022-052AX
Perigee: 546.1 km
Apogee: 547.6 km
Inclination: 53.2 °
Period: 95.4 minutes
Semi major axis: 6917 km
RCS: Unknown
Launch date: May 14, 2022
Source: United States (US)
Launch site: AIR FORCE EASTERN TEST RANGE (AFETR)
Your satellite tracking list
LANDSAT 5
Track 1 satellite(s)




NASA's NSSDC Master Catalog

Two Line Element Set (TLE):
1 52643U 22052AX  25199.48890665  .00000617  00000-0  56846-4 0  9990
2 52643  53.2164 230.4617 0001075  86.0720 274.0395 15.08840311176153
Source of the keplerian elements: AFSPC